Location: Lost River
(44.0370°N, 71.7842°W)
Time: 06:44:41
(UTC+00:00)

Daily predictions for brighter satellites

Satellite Brightness Start Highest point End
(mag) Time Altitude Azimuth Time Altitude Azimuth Time Altitude Azimuth
Cosmos 1943 Rocket 3.3 21:44:05 10° SSE 21:48:31 24° ESE 21:52:56 10° NE
Cosmos 2278 Rocket 3.3 21:44:14 10° SSE 21:48:35 23° ESE 21:52:57 10° NE
Cosmos 1908 Rocket 3.7 21:44:22 10° S 21:48:47 82° W 21:53:14 10° N
ISS -2.6 21:49:04 10° SSW 21:52:03 31° SE 21:55:03 10° ENE
IRS-1C 4.4 21:47:08 10° SE 21:52:12 48° ENE 21:57:18 10° N
Cosmos 1606 4.3 21:50:17 10° SW 21:52:30 23° WNW 21:54:45 10° NNW
SL-08 R/B 4.4 21:46:28 10° S 21:52:31 71° E 21:58:34 10° NNE
ATLAS 5 CENTAUR R/B 2.0 21:49:54 10° NNW 21:54:10 50° NE 21:59:26 10° SE
Cosmos 1802 Rocket 4.2 21:47:57 10° S 21:54:23 83° W 22:00:51 10° N
Cosmos 1975 Rocket 3.6 21:50:43 10° N 21:54:43 35° ENE 21:58:43 10° SE
CZ-2D R/B 3.4 21:51:54 10° SE 21:54:45 32° ENE 21:57:37 10° N
Iridium 4 Rocket 3.9 21:51:30 10° S 21:56:41 67° W 22:01:26 10° N
USA 215 3.3 21:50:51 10° ESE 21:57:23 81° NE 22:03:57 10° NW
Cosmos 921 Rocket 3.8 21:53:50 10° SSW 21:58:05 54° WNW 22:02:25 10° N
SWARM A 4.4 21:58:10 10° N 22:01:30 76° W 22:04:48 10° S
BREEZE-M DEB (TANK) 1.7 22:00:22 10° WSW 22:02:34 81° SSE 22:06:43 10° ENE
MOS 1 Rocket 3.9 21:58:59 10° SE 22:02:39 28° ENE 22:06:26 10° N
COSMO-SKYMED 1 4.2 22:00:32 10° ENE 22:02:42 14° E 22:04:52 10° ESE
UNK 3.7 22:01:33 10° NNE 22:06:12 86° ESE 22:10:48 10° SSW
SAR-Lupe-1 4.1 22:04:03 10° SSE 22:07:32 56° ENE 22:11:03 10° N
Meteor 1-28 Rocket 4.3 22:06:20 10° N 22:09:31 39° WNW 22:12:40 10° SW
Helios 1A Rocket 4.2 22:09:23 13° ENE 22:10:22 14° E 22:12:11 10° SE
Tsikada Rocket 4.1 22:07:39 10° N 22:14:08 84° E 22:20:29 10° S
Cosmos 2016 Rocket 4.5 22:09:34 10° SSW 22:15:49 68° W 22:22:11 10° N
IGS 5A 4.3 22:12:11 10° S 22:16:04 52° W 22:20:00 10° NNW
RESURS DK-1 3.2 22:14:18 10° N 22:17:46 28° NE 22:21:13 10° ESE
Cosmos 540 Rocket 4.0 22:13:31 10° N 22:18:16 36° ENE 22:22:57 10° SE
Cosmos 1763 Rocket 3.8 22:13:18 10° N 22:18:18 43° ENE 22:23:10 10° SE
SAR-Lupe-4 3.6 22:16:11 10° SSE 22:19:45 85° WSW 22:23:21 10° NNW
SL-16 R/B 3.6 22:14:50 10° N 22:20:47 47° WNW 22:26:42 10° SW
Cosmos 1140 Rocket 3.6 22:17:19 10° SSW 22:22:30 80° WNW 22:27:40 10° NNE
Cosmos 1269 Rocket 4.4 22:19:05 10° SSW 22:24:19 69° WNW 22:29:35 10° NNE
Cosmos 1833 Rocket 3.0 22:21:45 10° NNW 22:27:24 71° WSW 22:32:59 10° SSE
SAR-Lupe-3 3.8 22:24:49 10° NNE 22:27:29 80° WNW 22:30:07 10° SSW
BREEZE-M DEB (TANK) 2.5 22:25:22 10° WSW 22:27:34 72° NNW 22:31:01 16° NE
SJ-12 3.8 22:28:19 10° S 22:32:06 79° WSW 22:35:55 10° NNW
USA 281 4.5 22:29:54 16° ENE 22:32:16 19° NE 22:36:42 10° N
CZ-4C R/B 4.0 22:30:01 10° WNW 22:33:22 18° NNW 22:37:18 10° NNE
PSLV R/B 4.2 22:30:22 10° SE 22:33:49 28° ENE 22:37:16 10° N
YAOGAN 1 3.2 22:31:03 10° SE 22:34:47 31° ENE 22:38:32 10° N
Cosmos 2251 Rocket 4.0 22:32:16 10° S 22:37:07 39° ESE 22:41:14 14° NE
CZ-2D R/B 3.7 22:35:49 10° SE 22:39:44 46° ENE 22:43:45 10° N
Resurs 1-3 4.1 22:38:17 10° SE 22:42:10 34° ENE 22:46:04 10° N
IRS-P3 4.2 22:40:16 10° SSE 22:45:35 84° WSW 22:50:58 10° NNW
Cosmos 1812 2.0 22:42:49 10° S 22:45:39 53° E 22:46:32 35° NE
SJ 16-02 2.1 22:43:36 10° SSE 22:47:16 28° E 22:47:36 27° E
Nadezhda 4 Rocket 4.3 22:41:41 10° N 22:47:38 42° ENE 22:53:29 10° SE
Cosmos 2058 3.1 22:44:02 10° N 22:47:50 43° ENE 22:51:38 10° SSE
Okean 2 Rocket 3.7 22:45:56 10° SSE 22:49:48 31° E 22:50:29 29° ENE
Resurs 01 Rocket 3.8 22:56:08 12° NNE 22:56:08 12° NNE 22:56:36 10° NNE
Cosmos 1400 Rocket 3.5 22:52:14 10° SSE 22:55:02 31° ESE 22:55:02 31° ESE
Cosmos 841 Rocket 4.5 22:51:28 10° N 22:55:45 26° NE 22:55:45 26° NE
Cosmos 1536 Rocket 3.9 22:52:15 10° N 22:56:28 41° ENE 23:00:38 10° SSE
Cosmos 1869 3.5 22:53:28 10° SSW 22:56:57 59° W 23:00:26 10° N
ARIANE 5 R/B 3.7 22:52:57 10° S 22:57:41 44° W 23:02:27 10° NNW
Cosmos 44 Rocket 3.1 22:55:46 10° SSW 23:00:29 75° ESE 23:03:04 28° NE
Timation 2 Rocket 4.2 22:56:00 10° SSW 23:02:52 83° WNW 23:09:47 10° NNE
SJ-7 4.0 23:03:07 10° SSE 23:06:46 72° ENE 23:10:28 10° N
Cosmos 468 Rocket 3.9 23:03:10 10° NNW 23:08:22 62° ENE 23:12:48 14° SSE
Cosmos 1190 Rocket 3.9 23:08:23 10° S 23:13:38 69° ESE 23:16:32 27° NNE
IRAS Rocket 4.2 23:09:48 10° SSE 23:15:23 89° ENE 23:20:57 10° NNW
Cosmos 676 Rocket 4.3 23:11:15 10° S 23:16:15 44° ESE 23:16:32 44° E
SL-19 R/B 3.9 23:11:57 10° SSE 23:17:11 82° ENE 23:22:25 10° NNW
Cosmos 2344 4.2 23:15:26 10° NNW 23:22:55 45° NE 23:26:12 34° E
SPOT 1/Viking Rocket 3.9 23:18:18 10° S 23:23:25 65° WSW 23:28:35 10° NNW
ATLAS 2AS CENTAUR R/B 3.8 23:21:38 10° NNW 23:27:08 25° NNE 23:27:19 25° NNE
Cosmos 1954 Rocket 3.9 23:22:19 10° SSW 23:27:34 74° ESE 23:29:11 45° NE
ISS -2.6 23:25:31 10° W 23:28:15 40° NW 23:28:15 40° NW
Cosmos 2082 Rocket 2.0 23:24:34 10° NNW 23:30:13 83° ENE 23:33:07 30° SSE
Cosmos 1464 Rocket 4.0 23:24:56 10° S 23:31:15 82° W 23:37:32 10° N
Cosmos 371 Rocket 3.3 23:27:00 10° S 23:31:10 57° SE 23:31:10 57° SE
Cosmos 1943 Rocket 2.9 23:26:24 10° SW 23:31:52 52° WNW 23:36:14 16° NNE
Cosmos 2151 Rocket 3.8 23:27:40 10° SSW 23:32:08 72° W 23:35:06 21° N
Cosmos 2278 Rocket 2.8 23:26:42 10° SW 23:32:14 54° WNW 23:36:35 17° NNE
OAO 3 Rocket 4.5 23:29:09 10° SW 23:33:01 26° S 23:33:15 26° S
Aureole 3 Rocket 4.4 23:30:28 10° SW 23:33:07 26° WNW 23:34:34 18° NNW
ATLAS 5 CENTAUR R/B 4.0 23:32:39 10° WNW 23:36:36 26° WSW 23:41:14 10° S
Cosmos 304 Rocket 3.8 23:33:09 10° SSW 23:37:16 64° SSE 23:37:16 64° SSE
COSMO-SKYMED 1 3.2 23:36:03 24° N 23:38:20 52° WNW 23:42:19 10° SSW
Sich 1 Rocket 3.6 23:35:55 10° S 23:40:00 73° S 23:40:00 73° S
Helios 1A Rocket 4.0 23:43:02 34° WNW 23:43:10 34° WNW 23:46:16 10° SW
Cosmos 2034 Rocket 3.8 23:37:00 10° S 23:43:11 84° E 23:49:28 10° N
Okean 1 Rocket 3.6 23:43:11 10° SSW 23:46:31 50° SSW 23:46:31 50° SSW
RESURS DK-1 4.3 23:51:43 10° NW 23:55:07 27° WSW 23:57:09 18° SSW
